RH
2 1 2 1 1 2 1 1 1 1 2 1 2 3 7 5 9 25 30 31 22 8 6 8 16 31 47 54 51 43 37 37 36 32 29 28 31 30 24 20 22 28 35 56 81 82 77 77 70 66 64 58 51 44 37 33 32 33 29 23 20 20 20 20 18 16 15 14 13 11 11 9 7 6 6 6 6 7 7 6 5 5 5 5 11 19 30 42 46 49 52 51 42 32 26 20 17
2 2 2 2 2 2 2 2 1 2 2 1 3 6 9 6 6 18 29 30 21 11 7 6 14 28 38 43 46 46 40 38 37 36 35 33 30 23 17 21 25 31 43 71 93 90 84 79 70 67 67 61 54 46 38 34 35 34 28 24 23 22 21 19 17 15 14 13 12 11 11 10 8 7 6 7 7 7 7 7 6 5 5 5 10 20 30 43 50 51 53 54 46 35 28 23 18
2 2 2 2 2 1 2 2 2 2 2 2 4 8 9 7 7 14 24 29 24 17 11 6 12 19 26 30 30 34 36 39 39 35 36 33 24 15 13 23 31 34 50 79 94 93 91 84 74 68 68 64 54 47 39 37 35 31 28 26 26 24 22 18 17 15 13 12 11 11 10 10 8 7 7 7 7 7 8 7 6 5 6 5 10 21 30 43 53 52 51 51 49 42 32 27 23
2 2 2 2 2 2 2 1 2 2 2 3 5 10 10 7 12 17 20 25 26 21 14 9 11 13 17 25 26 25 26 29 30 27 28 27 19 14 16 26 36 37 49 69 82 86 86 84 80 74 71 60 46 40 35 34 32 29 29 29 28 25 22 18 17 15 14 12 11 10 9 9 8 7 7 7 7 7 7 6 6 5 6 6 10 19 27 42 54 56 56 51 49 47 39 34 29
2 2 2 2 2 2 2 2 2 2 2 4 8 11 11 11 16 20 20 22 27 23 15 12 11 10 12 17 21 22 21 20 20 19 19 19 15 16 18 23 27 34 47 61 73 77 79 83 84 83 72 48 35 33 30 29 30 31 32 32 30 26 22 19 17 15 14 12 12 10 9 9 8 7 7 6 6 6 7 6 6 6 6 6 11 17 24 39 53 59 62 58 53 49 45 40 36
2 2 2 2 2 2 2 2 2 2 2 5 10 11 14 17 17 23 28 28 28 24 15 15 15 11 14 15 19 22 22 19 17 18 18 16 17 20 21 20 19 26 39 50 63 71 81 82 79 84 64 36 30 28 26 30 33 36 36 34 31 26 23 19 16 14 13 12 12 11 10 9 8 7 7 6 6 6 6 6 6 6 7 8 12 19 25 38 53 62 67 66 59 54 50 46 42
2 2 2 2 2 2 2 2 2 2 2 8 12 12 21 24 19 24 39 45 39 37 25 21 25 18 15 17 20 24 24 21 19 22 23 20 17 19 22 22 24 30 37 42 49 59 71 73 76 81 54 29 26 25 29 34 37 40 38 35 29 25 22 18 16 14 13 12 12 12 11 10 8 7 6 6 6 6 6 6 6 7 8 10 14 22 32 41 56 68 73 72 67 61 55 48 44
2 2 2 2 2 2 2 2 2 3 2 10 17 13 22 27 23 24 39 55 49 44 38 33 42 36 23 21 24 25 28 30 28 28 27 25 20 20 24 24 29 36 43 49 54 55 59 72 85 76 44 26 26 28 33 36 41 43 39 32 25 22 20 17 16 15 14 13 12 12 12 11 9 7 5 5 5 5 5 5 6 8 9 11 14 23 36 46 58 68 73 75 71 67 63 57 48
2 2 2 2 2 2 2 2 2 4 2 8 20 17 20 25 26 29 40 56 49 40 38 38 49 48 35 28 30 31 34 37 35 31 26 25 23 25 28 27 34 41 45 54 65 66 69 83 83 58 34 28 30 33 37 43 48 45 38 29 22 21 19 18 19 19 19 17 16 14 14 13 10 8 5 4 4 4 5 5 6 7 9 11 13 22 37 47 55 60 61 65 66 66 68 69 58
2 2 2 2 2 2 2 3 3 4 3 5 17 18 20 25 27 34 42 49 47 41 33 29 40 45 39 31 31 33 34 35 35 28 24 28 27 28 28 27 36 48 53 58 64 73 85 85 62 40 34 35 38 42 46 50 50 43 34 26 23 22 21 21 23 25 26 25 23 20 17 16 15 11 7 5 4 4 4 4 5 7 7 9 12 20 34 45 50 51 52 54 59 63 67 73 67
3 2 2 2 2 3 2 4 4 4 5 4 11 15 18 27 31 35 41 43 43 44 32 21 29 35 34 32 30 29 26 31 35 25 21 23 25 27 29 38 49 55 59 62 67 77 83 68 46 40 42 45 46 47 47 47 44 36 31 27 26 25 25 25 26 28 29 31 30 27 24 20 20 18 15 10 6 5 5 4 4 6 7 9 11 16 26 37 42 45 47 47 53 61 62 68 69
3 3 2 3 2 3 3 5 5 3 6 5 7 13 18 27 32 33 38 40 38 41 33 20 28 34 32 32 28 24 24 29 30 23 19 18 26 35 41 58 67 67 66 63 70 77 73 56 44 47 50 53 51 48 47 44 38 30 27 26 24 22 23 25 27 28 28 32 35 34 32 27 25 25 23 19 13 8 6 6 4 5 6 8 10 13 18 25 30 33 36 37 42 51 55 59 66
3 3 3 3 3 3 4 7 7 4 8 8 7 14 21 28 33 33 35 38 37 36 30 19 25 31 28 28 26 24 27 30 27 19 17 22 35 43 54 71 71 70 68 66 78 74 58 50 51 56 59 60 57 55 51 44 37 30 26 22 20 20 21 25 26 26 28 33 38 40 38 34 29 26 25 25 22 15 10 9 6 5 6 7 8 10 12 14 17 18 21 24 28 37 43 47 56
4 4 4 4 4 5 5 8 10 6 8 10 10 14 22 29 33 36 38 41 41 40 37 27 25 27 28 28 23 25 31 32 31 26 21 25 31 37 57 74 73 73 67 71 90 78 57 57 63 67 67 66 65 61 50 41 37 31 26 22 22 25 28 32 33 33 34 36 39 42 42 39 34 29 25 26 26 20 15 14 10 7 6 7 8 8 8 8 11 14 17 21 24 28 36 41 48
5 4 5 5 6 6 6 9 12 10 9 9 11 16 21 28 35 42 44 45 45 44 44 38 29 26 31 29 21 29 42 41 36 36 36 34 34 40 52 61 69 75 67 69 81 75 69 71 71 72 72 71 68 58 46 41 39 35 31 28 29 32 33 36 43 48 46 42 43 45 46 45 43 37 30 28 26 21 19 21 19 14 10 9 8 7 7 8 13 20 25 27 27 25 33 42 47
6 5 6 7 7 8 8 9 12 12 10 11 16 23 28 35 42 45 46 46 46 42 37 37 33 31 34 28 20 27 43 50 41 37 45 47 43 44 45 47 62 71 67 66 71 73 75 75 74 75 73 69 63 56 50 47 43 38 32 29 27 26 25 28 39 53 55 50 46 45 44 44 44 41 35 30 26 23 23 28 30 24 17 13 9 7 7 9 14 21 26 25 26 26 32 43 49
6 6 7 8 9 9 10 10 11 11 10 13 22 33 38 41 43 43 45 43 40 36 29 31 34 33 33 25 19 19 28 40 34 29 41 48 47 50 50 49 53 59 62 65 71 78 80 78 79 76 69 65 61 56 55 54 47 41 37 36 35 32 29 26 29 41 49 44 36 32 32 34 36 36 33 31 28 24 23 27 32 31 24 16 10 8 6 8 10 12 15 16 22 29 33 42 51
8 8 8 10 11 10 11 12 11 10 11 13 21 38 45 42 43 42 43 40 36 35 29 27 27 24 24 23 21 18 18 23 26 30 38 45 50 54 58 62 63 60 64 71 78 84 84 82 79 72 67 65 59 54 63 66 58 52 50 50 48 44 37 30 25 25 29 27 20 17 19 23 28 31 29 26 26 24 23 25 29 31 28 21 13 8 6 5 6 7 9 14 23 32 37 42 50
10 10 10 12 13 13 12 11 11 11 13 13 16 32 40 39 41 38 37 37 33 32 29 25 23 20 20 24 24 21 21 22 28 41 49 53 53 46 42 58 75 79 78 80 81 82 83 81 78 74 69 65 55 56 70 68 58 54 52 49 44 38 32 28 23 18 18 17 15 14 17 22 24 27 26 24 27 29 27 29 32 33 33 31 24 16 10 7 7 8 11 17 24 35 44 47 51
12 10 12 14 14 15 16 14 14 13 11 13 15 21 29 36 37 34 35 37 32 31 31 26 23 23 22 24 24 22 23 22 24 35 45 47 43 32 25 41 68 82 87 86 84 84 85 82 78 75 69 59 50 57 66 58 49 45 43 43 39 34 29 25 22 20 19 17 15 17 26 35 32 27 25 24 30 41 40 36 38 39 44 46 42 35 28 23 19 18 19 22 27 37 47 51 56
13 12 14 15 14 16 19 16 16 17 12 12 15 16 25 32 31 31 33 34 34 35 34 27 24 25 23 25 26 24 23 20 19 21 26 30 32 27 22 33 50 62 76 87 91 88 84 82 79 76 66 51 44 53 56 50 44 38 38 40 38 35 30 27 26 25 23 20 17 16 26 41 49 46 41 31 30 50 57 47 43 48 59 61 55 51 46 41 36 32 31 31 33 38 48 53 58
14 14 16 16 14 15 18 15 13 16 15 13 13 14 22 29 29 29 27 27 33 33 28 23 21 21 24 27 27 31 37 34 29 29 32 36 37 32 27 35 48 61 75 84 87 84 79 81 78 67 54 47 47 51 49 44 39 35 37 38 36 35 30 27 25 23 21 18 18 22 32 45 61 70 66 48 34 53 71 62 56 64 75 76 70 63 56 52 47 43 40 36 37 41 48 54 60
15 16 17 16 15 16 18 16 14 13 13 13 13 15 22 29 33 29 22 23 28 27 21 19 21 22 23 25 24 32 43 42 38 39 43 45 45 43 42 49 63 76 81 78 78 77 78 81 72 52 41 44 48 47 43 40 35 31 32 30 29 26 23 22 20 20 19 19 26 36 50 62 72 80 80 71 58 69 84 75 72 82 86 86 84 76 67 63 56 50 47 41 39 41 47 55 64
17 17 17 17 16 16 18 16 15 13 11 13 14 18 23 31 36 29 23 23 24 23 19 21 26 25 26 29 27 29 32 33 30 30 33 35 43 56 63 69 80 87 83 76 75 76 81 81 65 46 40 41 40 38 36 34 32 28 26 23 21 20 18 19 21 23 21 22 28 34 52 67 73 75 76 80 83 90 91 83 87 95 95 92 92 88 80 75 67 61 60 57 52 53 54 60 75
17 18 17 18 17 16 18 16 15 14 13 14 17 20 23 30 32 23 20 23 23 23 20 21 25 25 29 30 29 28 27 26 21 19 21 25 42 63 73 83 92 93 85 78 77 78 79 71 53 43 43 43 38 35 31 28 26 23 21 19 17 16 15 15 17 18 16 16 17 22 40 55 66 74 73 77 88 92 89 84 86 89 93 97 99 97 93 87 80 73 69 69 68 69 64 62 76
16 17 17 17 17 17 18 17 16 14 13 15 18 20 21 26 26 18 19 23 24 23 19 21 25 27 30 27 25 28 28 23 24 32 32 29 47 66 76 93 99 92 85 78 76 78 77 66 52 46 47 47 43 37 32 28 24 20 18 17 15 13 11 11 11 11 11 11 10 12 23 37 60 78 78 78 85 86 81 73 72 79 91 98 100 99 95 90 84 79 75 75 75 74 70 65 67
16 17 16 16 16 17 17 16 16 13 14 16 18 20 21 23 20 17 20 22 22 22 20 22 24 27 28 25 24 27 25 20 30 54 60 48 52 72 87 98 94 83 76 74 76 79 74 60 49 47 49 48 41 33 29 26 23 19 16 15 13 10 9 9 9 10 9 9 8 8 13 29 58 80 84 82 78 75 73 73 82 91 90 83 80 83 82 79 76 74 73 73 74 75 75 76 74
17 17 16 16 16 16 16 16 15 14 16 18 19 20 20 20 19 18 19 20 21 20 20 20 22 27 27 24 25 27 23 22 27 42 61 63 61 78 92 88 81 73 69 76 85 79 61 47 48 53 52 44 34 27 23 20 17 16 15 13 11 9 8 8 8 9 8 8 9 10 14 17 33 60 77 78 69 68 72 79 89 87 78 67 58 60 64 66 67 65 62 59 65 74 77 77 76
17 17 16 16 15 15 15 15 15 16 18 19 20 20 19 19 19 19 20 21 21 21 23 25 29 33 31 27 31 32 23 26 28 31 57 75 67 68 71 70 72 69 66 74 76 61 44 41 49 53 47 37 31 29 22 14 11 13 14 11 9 8 7 8 7 8 8 9 8 12 21 21 25 42 62 70 63 62 67 69 68 58 53 55 47 46 52 54 54 56 56 50 48 57 61 55 52
16 16 16 14 12 11 11 12 14 16 17 18 19 18 19 21 20 18 20 20 21 26 28 31 33 31 31 36 46 42 28 31 34 40 68 79 65 55 54 60 67 66 63 60 51 41 36 39 43 43 36 28 28 30 21 12 11 14 13 10 8 9 9 9 8 8 8 9 9 12 22 31 40 45 50 61 57 48 49 48 45 37 34 41 40 38 42 44 43 42 50 54 49 43 38 32 36
13 13 12 10 8 8 8 10 12 14 15 17 18 19 20 22 22 18 17 17 21 32 36 38 39 35 32 38 49 46 35 41 44 50 64 65 58 53 54 61 61 60 56 46 39 35 34 36 37 33 25 20 24 25 17 12 15 16 14 11 9 9 9 9 8 8 8 8 7 9 17 26 43 54 47 46 42 32 33 33 30 26 23 28 32 33 36 39 37 30 32 42 50 44 29 20 26
9 9 8 8 7 8 9 11 12 12 15 18 20 23 26 29 31 26 18 15 21 36 46 47 43 38 32 31 45 51 46 50 55 58 60 57 57 55 59 63 56 50 44 38 38 35 33 34 29 22 18 21 24 20 13 12 15 14 14 12 10 10 9 9 9 8 8 9 8 11 18 21 31 43 39 31 27 23 25 28 26 20 16 17 20 26 31 31 30 28 24 21 27 32 24 17 18
7 8 8 10 9 10 17 20 18 19 20 25 29 30 34 43 51 46 28 18 20 36 55 58 49 45 42 41 50 57 55 59 60 58 61 67 67 63 64 63 56 53 48 42 39 35 36 34 24 20 23 24 21 16 13 13 14 13 13 11 10 10 9 9 9 8 8 8 9 12 19 27 28 25 27 27 22 18 18 20 19 14 12 11 12 17 22 21 19 23 25 17 13 15 15 17 24
7 8 9 10 10 13 25 27 24 29 32 35 37 35 39 48 60 59 45 35 33 42 61 68 65 63 60 56 51 46 47 52 55 53 60 73 81 81 77 74 69 59 52 47 42 42 41 33 24 26 32 28 21 20 18 16 16 15 14 12 10 10 9 9 8 8 9 8 10 13 19 33 32 20 21 22 15 12 11 11 10 10 10 9 9 11 13 15 14 14 16 16 12 11 12 18 31
6 9 10 13 19 24 32 35 31 34 44 49 43 38 41 48 59 65 59 56 52 52 67 74 72 72 69 62 51 41 36 34 40 49 57 68 82 90 89 91 85 66 58 56 51 48 43 37 28 25 33 32 24 22 21 18 15 15 16 15 12 10 9 10 8 8 8 8 10 14 27 44 43 30 21 13 9 9 8 7 8 9 10 8 9 10 10 11 12 11 10 11 12 10 9 13 32
9 12 10 18 35 40 40 43 41 38 48 57 49 40 45 51 61 67 62 63 62 60 70 72 67 67 64 61 56 48 41 32 36 53 66 76 86 88 85 92 89 73 71 72 64 55 47 43 32 25 35 39 32 25 21 22 19 18 22 22 18 13 10 9 8 8 8 8 9 9 22 43 49 41 26 11 8 9 7 8 8 8 8 8 9 9 10 10 10 11 10 8 9 9 8 7 31
13 19 18 29 48 53 50 49 49 48 53 61 55 46 48 52 58 63 62 65 67 65 66 64 58 59 60 60 60 58 55 47 45 54 63 74 90 96 91 90 82 68 71 77 70 58 50 45 37 37 47 49 44 32 22 28 29 25 26 27 25 21 15 11 9 9 7 8 10 8 10 18 22 21 15 9 8 9 10 10 8 8 8 8 9 9 9 9 9 10 10 10 8 8 8 7 22
18 28 33 46 54 56 61 61 60 61 63 67 65 54 48 48 50 55 65 69 68 65 63 60 52 50 56 60 61 62 60 53 49 51 48 48 64 79 77 70 66 67 75 76 66 57 53 47 40 43 47 45 46 38 26 31 37 30 24 24 28 28 21 14 10 9 9 8 8 9 10 9 9 8 8 9 9 9 10 10 8 9 9 8 9 9 9 8 9 9 9 10 9 9 8 7 14
22 36 48 62 61 60 67 66 67 71 72 72 70 65 57 55 53 53 63 69 70 71 66 63 58 53 56 61 63 63 57 46 37 34 30 24 27 41 57 63 69 80 80 69 60 58 57 52 46 43 39 37 41 40 29 30 36 33 26 23 23 25 22 17 12 9 9 10 9 9 10 11 11 10 8 8 9 9 9 9 9 9 9 9 9 9 9 9 9 9 10 9 9 12 10 6 9
28 39 56 73 70 69 72 68 73 78 76 76 73 72 68 67 63 59 66 72 74 80 76 68 62 60 62 62 64 65 62 51 35 25 21 17 15 28 55 66 66 64 57 52 54 55 53 51 49 43 40 42 44 41 31 26 31 32 30 26 21 21 21 18 15 12 10 11 12 11 11 11 11 12 11 9 9 9 9 9 9 9 9 9 9 9 9 9 9 9 9 9 9 11 10 7 7
38 42 55 76 77 79 79 73 81 86 83 83 79 78 75 71 67 64 67 72 75 81 80 66 57 66 73 71 70 70 67 53 34 23 17 13 11 15 29 36 34 32 29 37 46 47 46 45 43 40 43 47 47 42 32 24 27 28 27 26 22 22 23 21 18 16 14 12 12 12 12 12 12 12 12 11 10 9 10 9 9 10 10 10 10 9 9 9 10 10 9 10 9 9 8 8 8
43 53 62 79 84 84 84 79 82 86 89 91 86 85 81 71 68 67 67 68 70 76 76 62 56 69 78 77 74 69 64 51 32 22 18 19 17 14 20 22 21 22 24 34 44 48 49 44 42 41 40 43 48 51 45 36 33 27 26 27 24 23 22 23 21 18 17 15 13 13 12 13 12 13 13 12 13 12 11 12 12 12 12 12 11 11 11 11 10 10 10 10 9 9 9 8 8
38 59 72 83 86 84 85 84 82 80 85 88 82 75 71 66 63 62 68 71 69 75 80 71 64 69 74 76 73 65 61 55 42 32 26 27 26 22 26 24 22 29 34 40 47 55 57 48 41 38 38 45 52 56 54 50 45 36 34 31 23 22 21 21 21 20 20 18 15 14 13 13 13 13 13 12 13 13 13 13 13 13 12 12 12 12 12 12 12 11 10 10 9 9 9 8 8
26 48 73 86 85 83 83 80 79 75 72 70 64 51 47 55 61 61 69 76 79 81 81 78 72 71 73 73 68 64 66 64 54 42 33 33 34 31 30 25 25 32 35 35 38 45 51 49 45 44 45 46 40 36 40 52 60 57 59 51 29 19 20 20 21 21 21 20 17 15 14 13 12 12 12 12 12 11 12 11 11 12 11 11 11 11 11 11 11 10 10 10 9 9 8 8 7
18 31 67 88 83 82 82 78 76 71 62 58 54 43 36 42 55 67 72 73 81 85 81 79 74 69 69 68 66 68 74 74 61 48 42 44 42 37 36 32 29 29 32 36 39 44 50 51 50 47 44 36 24 19 26 49 68 72 83 79 46 25 22 20 23 25 21 18 16 15 15 13 11 11 10 9 9 9 9 9 9 9 9 10 9 9 9 9 9 9 9 8 8 8 7 7 7
20 21 52 83 85 78 77 76 75 72 61 51 46 44 43 40 45 63 68 63 70 78 81 77 66 63 66 69 71 75 79 75 65 58 52 46 39 35 37 37 31 28 31 34 36 41 48 52 53 52 48 38 29 22 18 31 56 75 92 87 52 35 35 27 24 29 23 16 15 14 13 12 10 9 8 7 7 6 6 6 6 6 7 7 7 7 7 6 7 6 6 6 5 6 5 6 6
20 18 30 60 77 71 68 65 63 70 70 55 44 43 45 40 36 44 50 50 53 60 70 70 62 64 73 76 79 82 83 75 68 68 56 40 35 34 36 37 31 26 26 27 28 30 32 35 41 47 46 41 37 29 17 12 28 50 63 56 42 48 56 41 27 29 25 16 14 13 11 11 8 6 6 5 5 5 5 4 4 4 4 4 4 5 5 4 4 4 4 4 4 4 4 4 4
16 17 16 31 46 43 43 43 37 51 70 70 61 56 54 46 32 29 36 45 53 58 68 73 70 70 76 83 84 84 85 77 72 73 57 39 35 30 27 28 28 26 26 27 28 28 28 29 32 36 37 38 36 30 26 17 15 29 32 29 47 69 67 46 29 27 26 16 13 14 12 10 7 3 3 3 3 3 3 3 3 3 3 3 3 2 3 3 3 3 4 3 3 3 3 3 3
15 17 16 18 26 27 31 35 32 37 50 60 63 60 61 56 39 27 29 41 57 68 75 78 76 73 76 86 91 88 83 77 75 70 49 31 26 22 19 20 23 24 25 26 27 28 29 29 31 34 33 32 29 35 45 32 15 25 32 39 74 95 74 46 31 26 23 17 14 14 13 11 8 5 4 3 3 3 3 3 3 3 2 2 2 2 2 2 3 3 3 3 3 3 3 3 4
26 26 31 36 43 47 45 42 41 41 43 48 47 46 53 56 47 37 32 36 52 72 83 81 78 73 69 78 87 86 77 72 73 64 41 23 17 15 15 16 16 16 17 20 22 24 25 26 27 27 27 26 32 48 56 45 32 36 40 50 83 103 85 59 39 28 21 17 16 14 12 12 10 10 11 10 8 6 4 3 2 3 3 2 2 2 2 2 2 3 3 3 3 3 3 3 3
47 45 53 63 65 60 52 43 40 49 59 58 48 43 46 51 56 54 46 44 56 80 94 90 85 80 73 73 77 76 74 76 74 61 41 25 19 17 17 16 13 10 11 11 14 17 18 22 22 20 23 24 37 61 70 70 73 65 55 65 90 104 99 79 52 31 22 17 16 15 13 12 10 14 18 18 17 15 11 8 6 4 4 4 4 4 5 4 3 3 2 3 3 3 3 3 3
62 56 54 61 65 63 58 48 39 40 54 62 56 48 44 44 56 64 64 66 76 90 97 93 90 89 86 83 79 78 80 77 67 56 48 39 30 25 22 20 16 14 15 15 16 16 15 20 21 22 25 19 26 56 79 88 93 87 77 74 80 87 91 92 74 45 27 20 17 18 19 18 16 18 22 23 24 24 23 19 15 13 12 11 11 11 12 12 11 10 8 7 6 4 4 3 3
71 63 55 60 64 66 68 66 57 44 46 56 50 45 52 58 68 79 82 86 92 95 93 92 94 96 97 94 88 86 83 76 67 62 59 50 36 27 23 22 22 20 21 20 19 18 16 18 17 15 18 18 24 38 54 69 80 95 95 66 45 39 42 70 89 66 38 26 21 22 26 27 26 24 26 30 32 33 33 31 28 26 24 21 19 18 18 18 18 17 16 15 13 10 9 7 6
68 69 64 68 71 69 69 76 80 70 64 66 58 61 77 83 87 91 88 86 90 91 88 86 86 88 92 92 89 87 81 76 72 59 47 39 31 27 25 26 27 25 26 25 21 20 16 12 19 29 30 40 56 54 55 75 87 96 95 63 42 34 23 48 86 83 61 43 29 26 30 32 32 31 30 34 41 45 43 39 37 38 37 34 31 28 25 23 21 21 20 19 19 18 16 14 12
67 81 77 76 82 79 69 67 74 75 72 72 74 84 91 88 89 88 86 87 88 85 82 80 76 72 71 73 79 82 79 72 61 44 33 28 26 28 28 27 26 26 27 27 24 23 20 16 27 46 48 50 61 54 53 80 97 96 83 55 47 49 39 49 78 90 86 67 43 33 32 33 36 38 39 43 49 54 55 52 48 45 41 39 38 37 35 32 30 28 26 24 23 22 21 20 18
68 80 83 84 85 82 75 67 64 65 68 73 81 92 91 85 87 88 88 92 87 80 76 75 74 69 65 70 77 80 78 66 48 37 36 32 28 31 32 28 26 26 27 27 25 24 24 22 24 35 41 41 40 32 26 39 55 59 48 37 45 55 47 46 60 75 81 69 51 43 40 39 42 45 48 52 55 56 60 64 60 51 42 39 39 39 38 38 37 36 34 33 32 30 28 25 22
67 66 72 79 81 76 69 64 58 55 63 71 76 88 94 85 81 84 85 85 81 78 76 73 71 72 73 78 79 79 77 65 45 35 33 28 26 29 33 33 32 29 27 26 25 23 22 22 21 22 26 24 18 15 12 12 16 20 21 29 47 59 56 50 52 61 69 62 51 50 52 49 50 54 56 57 59 57 58 63 63 54 44 40 38 36 35 37 40 42 41 38 37 37 35 32 28
64 61 60 64 73 75 63 57 55 51 58 63 56 65 86 89 86 87 83 79 77 77 79 76 71 71 73 72 70 68 68 61 48 40 33 23 17 17 23 30 30 29 29 25 22 23 22 20 21 18 16 15 14 13 13 12 9 13 20 27 35 44 52 56 55 56 60 58 52 55 61 59 58 63 65 62 61 59 56 58 61 61 58 54 50 46 44 42 43 46 47 44 42 41 39 36 33
Wind_Speed
28 29 29 29 29 29 30 29 31 30 29 29 25 15 13 16 21 25 25 29 32 31 30 28 26 27 26 26 27 28 29 28 29 31 33 34 34 36 36 36 35 33 31 30 30 31 30 29 28 28 28 28 27 28 28 29 29 28 26 24 22 21 20 20 20 19 19 19 19 19 20 20 20 20 20 20 21 21 20 19 18 18 18 17 16 14 14 13 13 12 12 12 12 12 13 13 13
28 28 28 29 28 29 30 28 30 29 28 27 18 13 16 17 22 28 29 30 32 30 30 29 28 30 31 30 29 28 30 31 31 33 34 34 35 36 37 37 36 34 32 29 27 27 26 25 26 27 28 28 28 28 29 29 29 27 25 23 21 20 20 20 19 19 18 18 19 19 19 19 19 19 20 20 20 20 20 19 18 18 17 17 16 15 15 14 13 13 13 13 12 12 12 13 13
27 28 27 28 27 28 29 28 29 28 28 23 12 15 18 19 24 29 30 30 31 32 32 31 31 32 34 33 33 32 32 33 33 34 35 36 37 37 37 37 36 34 32 29 26 25 25 26 27 29 29 28 28 29 29 29 29 27 25 23 21 20 20 19 18 18 18 18 18 19 19 19 19 19 20 20 20 20 19 18 18 18 17 16 15 15 15 14 14 13 13 14 13 13 12 12 13
27 27 27 27 27 28 27 28 27 27 26 15 11 18 22 23 27 29 31 30 31 33 33 34 34 34 35 36 37 37 35 35 36 36 37 39 40 38 37 36 36 35 35 34 32 30 30 31 31 31 30 28 28 29 29 29 28 26 24 22 20 20 20 19 18 18 18 18 19 19 19 18 19 19 20 20 20 20 19 18 18 18 17 16 15 15 15 15 15 14 15 15 14 13 12 12 12
28 28 27 27 27 27 27 27 26 27 22 10 16 23 24 25 29 29 30 30 29 33 36 36 37 37 37 38 40 40 38 36 36 37 37 38 39 37 36 35 35 36 36 36 36 35 35 35 34 32 30 29 29 29 29 29 27 25 22 21 20 20 20 19 18 18 19 19 19 19 19 19 19 19 19 20 20 19 19 18 17 17 17 16 15 14 15 15 15 15 16 16 14 13 12 12 12
28 28 28 28 28 27 27 27 26 26 18 13 20 24 26 27 30 30 27 29 29 32 35 36 36 38 38 39 40 40 39 35 33 33 32 33 35 36 35 34 34 35 36 37 38 37 37 36 36 33 30 30 30 29 28 26 24 22 21 20 20 20 20 20 20 20 20 20 20 20 20 19 19 19 19 19 19 19 18 18 17 17 17 16 15 14 14 14 15 16 17 16 15 14 13 13 13
28 28 28 28 28 27 27 27 26 23 13 14 23 25 29 30 31 30 26 27 29 31 34 36 36 38 40 41 41 40 38 35 32 31 31 32 35 36 36 35 34 33 34 36 37 37 37 37 37 34 31 30 29 27 25 23 21 20 20 20 20 20 21 21 21 21 22 22 22 21 20 20 19 18 18 18 18 18 18 18 17 17 16 16 15 14 13 14 15 16 17 17 17 16 15 15 15
28 27 27 27 28 27 27 26 23 19 11 17 27 27 30 32 32 32 27 25 29 32 33 36 37 38 41 42 42 41 39 36 33 31 31 33 36 38 37 34 32 32 32 33 34 36 37 37 36 34 30 28 25 23 22 20 19 19 20 20 21 21 21 22 22 22 23 24 23 22 21 20 19 19 18 17 17 18 18 18 17 17 16 15 15 14 14 14 15 16 17 18 17 17 17 17 16
27 27 27 27 27 26 26 24 19 16 11 19 31 30 31 33 33 33 28 25 30 34 35 37 38 39 41 42 42 41 39 37 35 32 30 31 33 36 35 31 30 30 31 31 32 34 36 35 33 31 28 25 22 20 19 19 19 20 20 21 21 21 22 22 22 23 24 24 24 24 23 21 20 19 18 17 17 17 18 18 17 17 17 16 15 15 16 16 16 17 17 17 17 17 18 19 18
27 27 27 26 26 25 25 21 16 15 14 22 33 34 33 34 34 33 27 24 29 33 36 38 40 41 42 43 43 42 41 38 34 31 30 28 28 30 30 29 29 29 30 29 30 33 34 32 29 26 24 21 19 18 18 19 20 20 21 21 21 21 21 22 22 22 23 24 24 24 24 23 21 20 18 17 17 18 18 18 18 17 17 17 16 16 16 17 18 18 19 18 17 18 19 19 18
26 26 26 26 26 25 24 20 17 18 19 23 33 35 35 35 34 31 26 27 30 32 35 38 40 41 42 43 43 43 43 40 33 30 30 29 28 28 27 27 27 28 28 27 27 31 33 30 25 22 21 19 18 18 19 20 21 21 21 20 20 21 21 21 22 22 22 23 24 24 24 24 23 22 20 19 19 19 18 18 18 18 18 17 17 16 17 18 20 20 20 20 20 20 20 19 18
26 26 26 26 25 25 23 18 17 20 20 23 30 35 35 36 34 28 26 29 33 34 36 39 40 40 41 42 43 44 43 42 40 34 30 29 29 27 26 25 24 24 24 24 25 29 31 27 21 19 18 18 18 19 20 22 23 23 22 22 22 23 23 23 22 22 23 23 24 24 24 25 24 23 22 21 21 20 19 18 18 18 18 18 18 17 17 19 20 21 21 21 21 21 21 20 19
25 25 25 25 24 24 21 14 15 18 19 23 27 34 36 33 30 28 27 29 33 35 37 40 40 39 40 40 42 43 43 43 41 36 29 28 28 26 25 24 22 21 20 21 23 25 24 18 16 17 17 18 19 20 22 24 25 25 25 25 26 26 25 24 24 24 24 24 24 24 25 25 25 24 24 23 22 21 20 19 19 18 19 19 18 18 18 18 19 19 19 20 20 20 21 21 20
25 25 24 24 22 21 18 11 14 17 19 24 26 32 37 33 27 27 28 30 32 34 36 40 40 37 38 37 37 38 39 39 36 30 28 28 27 26 25 23 21 20 18 19 19 19 15 12 15 17 18 19 20 22 24 25 26 26 26 26 25 24 23 22 22 24 24 24 25 25 26 26 27 26 26 24 23 22 21 20 19 18 19 19 19 19 19 19 18 18 18 18 18 18 20 21 20
25 24 23 22 21 20 17 12 15 19 21 24 26 28 33 32 28 27 28 28 30 33 35 39 38 36 37 37 35 34 33 32 28 24 24 26 25 24 24 23 20 18 18 18 19 16 12 13 16 17 19 20 22 23 24 25 26 26 26 25 23 21 20 19 20 22 24 25 25 25 27 27 28 28 27 26 24 23 21 20 19 19 19 19 20 20 20 20 18 18 18 18 17 17 19 20 20
24 23 21 19 18 18 16 13 16 21 23 24 25 25 27 27 27 27 29 30 30 33 36 36 35 36 37 37 35 33 32 29 25 22 22 22 22 22 22 22 20 19 18 20 20 15 11 14 15 17 19 21 22 23 23 24 25 26 26 25 24 24 22 21 20 20 21 22 23 25 27 28 29 29 27 26 25 23 22 20 19 20 20 21 21 21 21 21 19 18 18 18 18 18 19 20 20
23 22 20 16 15 15 14 14 18 23 27 26 23 22 23 24 26 28 29 32 32 34 37 37 37 39 40 38 34 33 33 30 26 24 23 22 20 19 19 21 21 21 21 22 19 14 13 15 16 19 20 22 22 23 24 25 25 26 27 27 28 28 27 26 24 22 20 22 24 25 27 28 29 28 27 26 26 24 22 20 20 20 21 22 22 21 22 22 20 19 19 19 19 19 19 20 20
22 21 18 14 13 14 14 18 22 26 29 30 27 21 20 23 26 28 29 32 34 35 36 36 34 34 36 35 31 30 30 28 25 24 23 22 19 17 16 17 19 21 21 20 18 16 16 17 19 21 22 22 23 23 21 21 23 24 26 27 27 27 26 26 26 26 26 27 28 28 29 29 29 28 27 27 27 25 23 21 21 21 21 22 22 22 22 22 21 20 19 19 19 18 19 19 20
21 20 17 12 12 14 17 22 26 28 30 32 31 26 23 24 25 27 29 32 32 30 28 27 26 25 25 26 26 25 24 22 22 21 21 20 17 16 17 15 16 18 18 16 16 17 18 19 21 22 23 23 22 21 19 18 20 21 23 23 23 23 23 24 24 26 28 29 30 31 31 31 30 29 28 28 27 24 22 21 21 22 23 24 23 22 23 23 22 21 20 19 18 18 18 19 19
21 20 15 12 16 16 18 24 27 28 29 31 31 27 25 26 25 25 27 28 27 28 25 22 22 22 21 21 21 20 19 20 21 21 22 21 21 21 20 17 15 16 17 18 18 19 20 21 22 22 22 22 21 21 21 20 19 19 20 21 22 22 22 23 24 25 26 28 29 29 30 30 30 31 30 28 26 23 21 21 20 21 23 24 23 22 22 22 22 22 21 20 19 18 18 18 19
21 19 15 16 19 18 20 25 27 27 28 27 25 22 23 24 20 18 23 25 25 28 27 21 18 19 19 19 19 19 19 21 22 23 23 24 24 23 21 18 15 15 17 20 21 21 21 21 21 22 22 22 21 21 21 21 20 20 20 21 22 22 23 24 25 26 27 28 28 28 28 27 28 29 30 29 26 23 21 21 19 20 22 23 24 22 21 21 22 22 21 21 20 18 18 18 19
22 18 16 18 20 19 22 25 26 27 27 24 21 18 19 19 15 14 19 23 24 26 23 19 18 19 19 18 16 16 16 18 19 19 19 19 19 18 18 17 16 16 17 20 22 21 21 21 20 21 21 19 18 18 19 20 20 20 20 21 21 22 24 26 27 27 27 27 27 26 25 25 25 24 26 28 26 23 21 20 19 20 21 22 23 23 21 20 21 21 21 21 20 19 18 18 19
23 19 18 19 19 20 22 24 26 27 24 20 19 18 17 15 15 16 19 20 22 21 17 16 18 18 18 16 14 13 14 16 17 17 16 15 15 14 14 15 16 17 19 19 20 20 20 20 19 19 18 17 15 15 17 18 19 19 21 21 21 23 25 26 27 26 25 25 25 24 23 23 22 21 21 22 23 23 20 18 19 18 18 19 20 20 19 19 19 19 19 20 20 19 18 18 19
24 20 19 19 21 21 22 24 24 24 21 15 13 14 14 14 17 21 22 21 21 18 14 14 16 16 14 13 11 12 15 17 18 18 17 16 15 13 14 15 17 18 18 18 19 20 20 20 20 19 18 16 15 16 17 18 19 20 22 22 23 24 25 25 25 25 24 24 23 21 21 20 20 20 21 20 20 21 20 18 19 17 15 15 16 18 19 19 18 18 18 19 19 19 19 19 20
24 22 22 22 23 22 23 23 23 23 18 12 10 12 12 14 21 23 22 22 21 17 13 13 14 14 13 12 11 11 14 16 18 19 18 18 15 13 14 16 17 17 17 19 21 21 20 19 20 19 17 15 15 16 17 18 19 20 21 22 23 24 24 25 24 23 23 22 21 20 19 18 18 19 20 20 19 18 18 17 17 18 16 16 16 17 18 19 19 19 19 19 20 20 20 20 21
25 24 24 24 24 23 24 23 23 22 16 10 11 13 15 18 23 22 20 20 20 18 14 12 13 14 14 13 12 13 14 16 21 24 21 17 14 13 13 15 17 17 18 19 21 20 19 18 19 19 16 15 16 17 17 18 18 19 20 21 22 23 23 23 22 20 20 20 19 18 17 17 17 17 18 19 17 15 16 16 17 17 15 13 13 14 14 15 17 18 19 19 20 20 21 21 22
26 26 25 23 23 24 25 24 25 21 14 12 13 14 18 20 22 20 19 20 19 18 14 12 13 15 15 14 14 13 14 16 19 21 18 13 11 12 14 16 18 18 18 17 18 18 17 17 18 17 15 15 17 18 17 17 17 18 19 20 21 21 21 20 19 17 17 18 18 16 15 15 14 14 14 13 13 12 12 12 11 8 4 5 6 8 10 13 15 17 17 17 17 18 19 21 21
27 26 25 24 23 24 26 26 25 21 16 15 15 17 19 18 18 20 20 20 19 17 15 14 14 15 16 16 15 13 12 14 14 14 14 13 12 13 15 17 17 17 16 15 17 17 16 15 15 15 16 17 17 17 17 16 17 17 18 20 20 20 19 18 17 16 16 16 16 15 14 13 13 12 10 9 10 10 9 8 6 5 6 7 6 5 7 9 13 16 18 18 17 17 16 17 18
28 27 27 25 23 24 26 27 26 22 19 19 18 20 18 14 16 20 20 19 18 16 15 14 15 16 17 17 15 12 11 12 11 10 11 15 14 13 15 16 16 15 14 14 17 17 16 15 15 16 17 17 16 16 16 16 16 16 17 18 18 18 18 17 16 15 15 15 14 14 13 13 13 12 10 10 10 9 9 7 7 10 10 8 6 4 4 6 8 11 15 18 19 18 17 16 17
28 28 28 26 24 22 24 27 26 23 22 21 21 19 15 13 17 21 20 18 16 14 14 14 16 18 17 15 13 12 12 10 9 7 9 14 12 11 13 14 16 16 15 17 19 19 17 15 15 16 16 16 16 16 16 15 16 16 16 17 17 17 16 16 16 15 15 15 14 13 13 12 11 10 8 9 8 7 8 7 8 9 8 7 7 5 4 6 6 7 10 14 17 18 18 18 18
26 26 26 24 22 22 24 25 24 23 23 22 20 17 14 15 18 22 20 17 16 14 13 13 15 17 16 13 11 12 11 8 6 5 8 11 11 11 12 14 16 16 17 19 19 18 15 14 15 15 14 14 15 15 15 15 16 15 15 16 16 16 16 16 16 15 16 16 15 14 13 12 10 8 6 7 8 6 6 7 8 7 6 6 7 6 5 6 6 6 6 9 12 14 16 17 18
25 24 22 19 19 21 20 19 19 21 21 19 17 13 12 14 17 21 19 17 18 16 13 14 16 17 17 16 11 10 9 8 7 6 6 9 10 10 12 14 16 16 17 17 17 16 15 14 14 14 14 13 13 13 14 14 15 15 15 15 16 16 16 16 15 15 16 16 16 15 13 11 9 9 8 8 8 7 7 9 9 7 6 6 7 7 6 5 6 6 5 5 8 11 13 15 17
23 22 19 17 18 18 15 14 16 18 19 16 12 12 12 13 17 20 18 18 20 18 15 16 19 19 19 16 10 8 9 9 10 9 8 8 9 10 13 16 17 17 16 15 15 16 15 14 14 14 13 12 13 13 14 15 15 15 15 15 16 16 16 16 15 15 15 15 16 15 13 12 10 10 10 7 7 8 9 11 10 8 8 7 7 6 6 6 6 6 5 4 6 8 11 13 14
22 20 19 20 20 19 15 14 16 16 15 12 8 10 13 16 19 18 15 16 18 18 16 18 21 21 20 18 15 15 14 14 13 12 11 10 10 12 15 18 19 19 16 14 14 15 14 13 12 12 12 12 13 14 15 16 16 16 16 15 15 16 16 16 15 15 14 14 15 14 13 12 11 11 10 8 7 9 11 11 11 9 8 8 7 7 7 7 7 7 6 4 4 6 8 10 12
21 20 20 20 19 17 14 14 17 15 11 7 4 7 14 19 19 14 11 13 15 17 17 19 22 23 23 21 20 20 20 19 15 12 12 11 11 12 14 16 16 16 13 12 13 14 14 14 12 11 11 11 12 13 15 17 17 17 16 16 16 15 15 15 16 15 15 14 14 13 12 11 12 12 11 9 8 9 11 11 11 11 10 9 9 8 8 9 9 8 7 6 6 6 8 9 11
19 19 21 21 17 14 15 15 17 16 10 6 2 7 16 20 19 14 11 12 12 14 17 19 22 23 22 21 21 22 22 21 17 11 11 12 11 11 11 10 11 13 12 13 15 15 15 14 13 12 10 10 11 13 15 16 16 16 16 16 16 15 15 15 15 16 16 16 14 14 12 10 12 13 12 11 10 10 11 11 12 12 11 11 10 10 11 11 11 10 9 8 7 8 8 9 10
19 21 22 22 18 13 14 13 12 11 8 5 1 7 19 19 20 18 12 11 11 14 18 20 22 22 20 19 19 20 21 21 18 14 13 13 12 10 9 10 13 15 14 14 17 17 16 14 12 11 10 10 11 12 14 15 15 15 15 16 16 15 15 15 16 16 17 17 16 15 13 12 13 14 15 13 12 12 12 12 12 13 13 13 13 13 12 13 13 12 10 9 9 9 9 9 10
19 22 22 20 17 13 13 11 6 7 5 5 4 8 16 17 19 19 14 13 13 15 19 20 22 21 20 19 18 19 20 21 20 17 16 16 15 13 12 14 16 16 14 14 16 16 15 13 11 11 11 12 11 11 13 15 15 15 14 15 16 16 15 15 15 16 16 17 16 15 13 13 13 14 14 14 13 13 13 13 14 14 15 15 15 15 14 14 14 13 12 11 11 11 11 10 10
18 23 23 18 15 14 16 12 7 9 8 8 10 10 14 16 18 20 18 16 15 15 19 21 23 23 21 19 18 19 21 21 20 19 19 19 18 16 14 14 16 15 14 15 15 14 14 13 12 12 13 13 12 11 12 14 16 15 13 13 15 16 15 15 15 15 16 16 16 15 14 13 12 13 13 14 14 14 14 14 15 16 16 17 16 16 15 15 14 14 14 13 12 12 12 11 10
18 22 24 18 16 15 16 13 11 14 16 13 15 15 15 16 16 20 20 18 16 15 20 23 25 27 24 20 20 22 23 24 24 22 20 17 16 14 13 14 17 16 15 15 14 13 13 14 15 14 13 12 12 10 10 13 15 14 11 12 14 14 14 13 14 15 15 15 15 15 15 13 12 12 12 13 14 14 15 16 16 16 17 17 17 17 17 16 15 15 15 15 14 14 14 13 12
19 22 24 21 18 17 18 19 17 19 21 19 19 19 20 18 16 21 24 22 19 18 22 26 26 26 24 23 24 27 29 27 23 20 18 14 13 14 13 15 17 17 16 14 12 13 14 15 15 14 13 13 12 10 9 11 14 13 11 11 12 12 12 12 13 14 15 15 15 15 14 14 12 12 12 12 13 13 14 15 15 16 16 16 17 17 16 16 15 16 16 16 16 16 16 15 15
21 23 25 24 22 21 24 26 24 25 26 25 24 25 26 23 19 22 27 28 26 23 24 25 25 25 26 27 29 31 28 22 19 17 15 12 12 12 13 14 15 14 14 13 12 13 15 15 15 16 16 16 14 13 10 10 13 14 12 11 12 12 12 12 12 13 14 15 15 15 14 14 13 12 12 12 12 12 13 13 14 14 15 16 16 16 16 15 15 15 16 17 17 17 17 17 17
23 25 27 27 26 25 26 29 29 29 30 29 29 30 29 26 22 23 28 31 29 26 24 24 25 26 29 31 33 31 25 20 19 17 15 14 13 12 11 12 13 12 12 13 13 13 14 15 15 17 18 18 17 16 16 13 13 14 12 13 15 14 13 12 12 11 12 13 15 15 14 13 13 12 12 12 12 12 12 13 13 14 14 15 15 15 15 15 15 15 16 17 17 17 17 18 18
23 25 30 31 29 29 29 31 31 30 30 30 30 29 27 25 22 23 28 30 30 29 26 26 27 28 31 33 33 29 24 23 22 19 18 16 12 9 8 8 9 11 13 13 14 13 14 15 16 17 17 17 17 18 19 17 13 12 13 16 19 18 15 13 13 12 11 13 15 15 14 13 13 12 12 12 12 12 12 13 13 14 14 14 14 14 14 14 15 15 16 16 17 17 18 18 19
20 25 32 35 33 33 33 33 33 32 31 30 29 27 24 22 20 23 29 31 31 31 29 30 31 32 32 32 30 27 27 28 26 23 20 13 9 9 8 8 7 9 10 11 12 12 13 15 16 17 16 17 18 19 19 19 19 19 18 20 21 20 17 15 14 13 13 14 16 16 15 13 12 12 12 11 12 12 12 12 13 13 14 14 14 14 14 14 14 15 15 16 17 17 18 19 20
22 25 32 38 38 37 36 35 34 34 34 32 30 28 26 24 21 22 28 31 33 35 34 33 34 33 31 29 28 28 29 30 27 21 14 10 10 11 10 9 9 9 9 10 10 11 12 14 16 17 18 18 20 21 21 21 21 24 25 22 20 19 19 17 16 14 13 14 16 17 16 13 12 12 11 11 11 11 12 12 12 13 13 13 13 13 13 13 14 14 15 16 16 17 18 19 20
24 27 31 37 39 38 37 36 35 35 34 33 31 29 29 28 24 23 25 28 31 34 36 35 33 31 28 27 27 28 30 31 27 19 13 13 14 14 13 13 14 13 12 12 12 13 14 16 17 19 21 21 22 24 25 24 23 23 24 21 18 19 20 18 17 15 13 13 15 16 16 13 12 12 11 10 10 10 11 11 11 11 11 11 11 11 11 11 12 13 13 14 15 16 17 18 19
25 28 29 32 36 37 36 36 36 36 35 34 33 33 33 31 27 23 22 26 29 32 34 33 30 28 26 24 25 27 30 31 26 19 18 18 17 16 16 16 17 16 15 14 14 15 17 18 19 21 23 24 25 26 26 26 25 23 23 22 19 19 19 19 18 16 13 12 13 15 15 14 12 11 10 9 9 9 9 10 10 10 9 9 9 9 9 9 10 11 12 12 13 14 15 16 17
24 26 27 30 31 31 30 30 33 34 34 34 35 36 35 33 29 23 20 23 27 29 32 32 29 28 26 25 25 28 31 30 25 22 21 21 19 18 18 19 19 19 17 16 15 16 18 20 21 23 24 25 26 26 27 29 28 24 23 23 19 17 18 18 17 15 13 11 12 14 15 14 11 9 9 8 8 9 9 9 9 9 9 9 8 8 7 8 8 9 10 11 12 12 14 15 15
22 22 23 24 24 23 22 22 26 29 31 32 34 34 33 32 30 25 21 23 25 26 29 30 31 30 29 29 29 30 30 28 25 24 23 22 20 20 21 22 21 20 19 19 18 18 20 22 23 24 25 25 26 27 29 31 30 25 24 23 19 15 16 18 16 14 12 11 12 13 14 13 11 8 7 8 8 9 9 9 9 9 9 8 8 7 7 7 7 8 9 9 10 11 12 13 14
22 20 20 19 20 20 20 20 22 24 27 30 31 31 30 29 28 26 24 24 25 26 27 27 29 31 32 31 30 30 28 25 24 24 24 24 23 23 24 23 22 21 21 21 22 22 23 24 24 25 25 24 25 27 30 32 30 25 22 21 18 15 15 16 15 13 12 12 12 13 14 13 10 7 6 7 8 9 9 9 9 9 8 8 8 7 7 7 7 7 8 8 9 10 11 12 12
22 21 20 20 21 21 20 20 21 23 26 27 27 27 27 26 26 26 24 23 25 27 28 29 30 32 33 29 27 28 26 23 23 24 25 26 26 25 24 22 21 21 21 22 22 22 23 24 23 23 23 23 24 26 29 31 32 27 20 17 18 18 17 17 14 13 13 14 14 13 13 12 10 7 6 7 7 8 9 9 9 8 8 8 8 8 7 7 7 7 7 8 9 9 10 11 12
22 21 20 20 21 19 17 18 20 23 24 24 23 23 22 22 22 22 20 22 25 26 27 29 30 30 30 26 25 26 23 21 23 25 27 28 27 26 24 22 20 20 20 20 20 20 21 22 23 24 24 24 24 25 27 30 33 32 22 16 18 20 19 17 14 14 14 15 15 14 12 11 11 9 8 8 8 8 9 10 10 9 9 10 10 10 9 9 8 8 8 8 9 10 11 11 12
20 19 18 19 18 17 16 16 19 22 21 19 18 17 17 18 18 18 17 18 21 21 21 22 23 24 24 24 24 24 22 22 23 24 25 26 25 24 23 21 20 18 17 17 18 18 19 21 23 24 23 24 24 23 24 26 29 31 24 19 19 21 20 18 16 14 15 16 16 15 14 13 12 12 11 9 9 9 10 10 11 11 12 12 12 12 12 12 11 11 10 9 10 10 11 12 13
18 16 16 17 16 16 16 16 19 20 18 16 14 14 15 17 18 17 17 17 18 19 19 19 20 23 24 24 23 22 22 22 21 21 22 21 20 19 19 18 18 17 17 17 17 18 20 20 21 22 22 23 23 21 22 22 25 26 23 21 20 19 18 18 18 16 17 18 18 17 16 15 13 12 11 10 9 9 10 11 12 13 13 13 13 13 13 13 13 13 12 12 11 11 11 12 13
19 19 19 20 20 18 17 17 18 18 16 14 13 13 15 17 18 18 18 19 20 21 22 22 23 24 24 24 23 23 23 22 20 19 20 17 16 16 17 18 18 17 16 17 18 19 21 21 21 21 22 21 22 21 22 22 24 25 25 23 19 17 16 17 18 19 20 21 20 18 17 15 14 13 12 11 11 10 11 12 13 14 14 13 12 12 12 12 13 14 14 14 13 12 12 12 13
23 24 25 26 26 24 22 19 19 18 17 16 15 15 16 18 19 19 19 20 22 23 23 24 23 23 22 23 23 23 24 23 21 19 18 17 16 16 18 19 19 19 19 19 19 20 22 23 22 22 21 20 21 22 22 22 25 26 26 22 20 19 18 19 19 20 21 22 21 19 18 16 15 14 14 14 14 13 12 12 13 14 14 14 13 12 12 12 12 13 15 16 15 15 15 14 14
25 24 26 28 28 27 24 21 21 22 20 19 19 17 17 19 20 20 20 21 22 23 23 23 23 23 23 24 24 23 23 24 24 23 20 19 19 19 20 20 22 23 23 22 22 22 23 23 23 23 22 21 22 23 24 25 26 26 25 24 23 23 23 23 21 21 22 23 23 21 19 17 16 16 16 17 17 16 14 13 14 14 14 14 13 13 14 14 14 15 15 16 16 17 17 17 17
Wind_Direction
250 251 252 253 254 255 256 256 257 258 260 259 263 259 237 228 203 204 213 218 234 245 249 251 252 252 245 239 237 235 235 237 244 255 263 267 271 274 277 278 276 274 272 272 268 264 266 269 271 272 272 273 274 275 276 277 276 274 273 273 276 279 283 287 291 295 298 300 300 299 298 296 295 296 298 299 300 301 302 301 298 294 287 281 272 259 250 242 240 244 244 244 243 246 245 243 246
251 251 252 253 255 255 257 257 258 259 260 260 261 241 223 224 210 206 212 219 231 240 246 249 246 247 248 246 245 241 236 235 242 251 257 261 266 272 274 274 273 272 270 268 265 262 264 266 269 272 272 272 272 274 275 275 274 272 272 272 275 278 282 286 291 295 298 298 298 296 295 294 294 294 295 296 298 299 300 300 298 295 289 281 271 255 245 239 235 239 242 243 243 243 243 241 243
252 253 253 254 255 256 257 258 259 259 261 262 249 226 215 215 211 206 209 219 230 233 241 247 242 243 247 248 248 247 243 238 241 249 253 256 263 270 271 269 268 267 266 264 263 263 263 266 272 274 271 270 271 273 274 274 273 271 271 272 275 279 283 286 291 294 295 296 294 294 293 293 293 293 293 294 295 297 298 298 297 295 289 280 269 252 242 236 231 235 241 242 241 241 242 242 242
255 255 255 256 257 258 259 259 260 261 264 259 224 216 209 212 208 205 210 217 231 231 236 244 244 245 245 246 249 249 248 248 251 255 256 258 261 264 264 264 265 265 265 264 264 265 265 268 272 272 268 269 271 272 272 272 271 270 270 273 277 281 283 286 289 291 291 292 291 291 292 292 292 291 291 292 293 294 296 297 295 293 288 280 268 252 240 233 230 233 239 240 241 242 243 244 245
257 258 258 259 260 260 261 261 262 262 263 226 202 213 211 214 206 207 214 216 231 233 234 241 245 248 247 246 249 250 251 253 257 258 258 259 258 258 260 260 262 264 263 264 264 266 266 267 270 269 267 270 271 271 271 270 269 268 270 274 279 282 283 285 286 287 288 288 289 290 291 291 291 290 290 290 291 293 295 295 292 289 285 278 266 251 240 231 229 234 239 241 243 243 244 245 246
258 259 259 261 261 261 262 261 262 262 260 208 203 215 213 213 209 212 218 219 230 234 237 241 245 250 253 252 253 255 255 255 257 258 259 257 255 255 259 259 261 262 262 262 263 264 265 265 267 266 266 270 270 268 268 266 266 267 272 277 280 283 284 284 284 284 286 287 288 289 291 291 290 289 289 289 290 292 292 292 289 285 280 273 263 250 239 232 230 235 241 244 244 245 245 245 245
258 259 259 261 261 261 260 260 261 261 256 204 204 215 213 214 219 220 221 227 233 235 242 245 246 249 254 256 256 258 260 259 258 261 264 259 252 253 258 259 259 260 261 261 261 262 262 263 263 263 266 267 265 264 263 263 265 269 274 279 282 283 284 284 283 285 286 287 288 290 291 291 290 288 287 288 288 289 288 287 285 281 275 269 261 250 239 233 232 236 240 242 243 244 244 244 243
257 259 259 260 260 261 261 261 262 259 247 196 199 214 217 218 225 226 225 234 239 238 243 247 249 249 252 254 254 257 260 262 264 267 270 265 255 253 257 258 257 259 260 261 261 261 260 259 259 260 263 261 259 258 259 261 265 271 277 280 281 282 283 283 284 286 287 288 289 290 291 289 288 286 284 285 285 284 283 281 278 275 272 267 260 251 240 234 233 235 238 239 241 243 243 243 242
256 257 258 259 260 262 262 262 260 253 234 191 195 210 219 222 227 227 227 240 245 241 242 245 248 250 254 257 258 261 263 268 272 271 272 272 261 253 255 255 257 260 259 260 262 260 257 256 256 257 257 254 253 253 256 262 266 272 276 278 279 280 282 284 286 287 288 289 290 289 288 286 284 283 281 280 280 279 278 276 273 270 269 266 259 250 240 235 233 235 237 237 238 241 242 242 241
256 256 258 259 259 260 260 258 252 241 224 192 193 206 216 222 227 226 229 245 252 248 246 245 246 249 253 258 263 266 269 272 272 269 267 272 267 256 255 256 259 260 260 260 260 259 254 251 251 251 251 249 250 253 257 262 266 271 273 274 276 279 281 284 286 288 288 289 288 286 284 283 281 279 277 276 275 275 275 274 271 268 265 262 256 249 242 238 235 235 237 237 236 238 241 240 240
256 256 256 257 258 258 259 254 243 238 224 196 194 204 213 219 225 228 233 248 253 250 251 253 252 253 254 257 261 267 272 272 269 267 266 270 270 261 258 261 262 262 263 260 260 257 247 242 244 245 246 248 251 255 259 263 267 270 270 272 275 279 282 283 285 286 286 286 285 284 283 281 279 276 275 273 272 273 274 274 271 265 259 254 250 246 242 240 238 237 238 239 236 236 239 239 238
256 257 257 256 257 257 259 252 244 247 229 205 199 204 212 218 224 230 239 251 252 246 247 252 254 258 261 263 265 268 271 272 271 272 271 268 268 264 261 263 263 264 264 261 261 252 240 237 240 243 244 248 254 259 264 268 271 271 271 274 277 279 280 281 283 284 284 283 283 283 282 280 278 276 274 273 272 273 273 273 270 264 256 250 246 242 239 239 239 238 238 238 236 235 237 238 236
254 256 256 256 257 257 259 247 242 251 230 214 207 203 209 219 227 232 242 254 255 249 248 251 252 256 261 266 269 269 269 270 274 276 272 265 264 264 264 264 264 263 261 261 257 241 238 242 239 241 244 250 257 265 271 273 275 274 276 277 278 279 280 281 282 282 281 280 280 281 281 280 279 277 275 275 275 275 274 274 271 265 256 249 245 242 237 235 236 236 237 236 234 233 235 236 234
253 255 256 257 257 256 256 232 222 239 228 221 217 207 207 214 227 236 246 254 257 256 255 257 259 261 263 267 271 269 267 268 273 274 267 262 263 264 264 265 266 264 260 260 251 233 237 239 230 237 244 252 260 269 275 277 277 277 278 278 279 279 280 281 281 280 277 277 278 279 281 281 280 279 278 278 278 278 278 277 273 267 258 250 245 242 239 235 233 233 234 235 233 231 232 234 233
253 254 255 257 257 256 253 225 209 226 230 230 230 220 213 216 226 236 247 254 256 256 255 258 264 267 266 269 271 267 266 266 268 267 263 263 264 263 264 267 268 265 257 253 248 236 228 223 227 240 249 259 267 273 278 279 278 277 276 276 276 277 279 282 283 281 275 274 276 278 280 281 281 281 281 281 282 284 283 280 277 272 263 254 246 241 239 237 234 232 234 236 236 232 231 233 233
252 253 254 255 256 254 249 225 209 220 227 229 230 229 225 227 235 238 245 250 251 254 256 258 263 266 265 269 268 263 263 264 265 265 266 268 267 266 265 266 265 262 256 249 248 244 230 227 237 249 256 263 267 271 276 276 275 274 274 275 275 275 277 280 283 283 276 275 278 280 281 281 281 282 283 284 285 285 282 279 276 272 265 256 246 239 237 237 235 232 232 234 236 234 231 232 233
252 253 253 252 250 246 239 223 216 220 223 223 219 225 232 234 244 248 251 255 256 259 261 262 265 266 264 267 267 262 261 265 269 268 269 272 273 273 268 264 261 258 258 256 254 251 243 242 248 253 256 260 264 270 273 272 271 272 274 275 275 275 275 274 275 276 277 279 281 282 282 281 282 283 284 284 283 280 277 274 270 267 263 256 246 238 236 236 234 232 232 233 233 233 231 231 232
254 254 252 249 245 236 221 214 218 221 221 222 214 214 232 238 248 253 254 257 260 264 268 270 271 270 266 264 265 265 267 271 274 272 271 272 272 274 275 270 262 257 257 258 256 253 251 252 253 255 258 263 269 274 274 272 271 273 275 275 275 274 273 273 271 270 272 277 279 280 282 283 285 285 283 282 281 280 279 275 268 263 260 255 247 240 237 236 235 232 233 234 233 233 233 233 233
254 255 254 245 239 230 217 217 221 221 220 223 219 213 223 235 244 251 253 256 260 264 269 277 280 277 273 267 265 270 275 275 274 274 272 269 267 272 278 274 266 258 248 243 245 247 249 251 253 256 260 267 272 271 269 274 276 275 274 274 274 274 274 272 270 269 270 272 275 278 281 284 285 284 282 282 283 285 282 275 268 262 256 251 247 244 242 240 238 236 235 236 234 232 232 234 235
253 255 253 235 233 224 215 223 224 225 228 228 228 226 228 234 242 253 259 261 264 264 268 283 285 280 279 275 274 276 276 274 270 270 270 268 269 274 276 270 264 259 245 233 233 238 244 249 254 259 264 270 271 266 266 275 281 280 277 275 275 275 273 271 270 270 270 272 275 278 282 284 283 281 280 281 284 287 283 275 268 264 260 253 246 244 246 245 243 242 239 237 236 231 230 232 234
250 250 244 232 236 222 211 227 230 230 237 238 240 246 246 243 247 263 270 270 269 266 268 278 281 278 278 276 278 280 278 276 272 271 272 273 273 274 272 263 260 260 255 246 241 241 245 252 258 264 269 270 268 265 267 273 279 282 279 275 275 275 273 272 271 271 272 274 276 279 281 283 283 281 278 277 280 283 280 274 268 264 264 259 249 244 247 251 249 246 242 239 236 231 228 229 230
248 243 236 234 238 230 221 234 240 237 241 249 256 266 269 260 260 276 276 274 272 268 270 274 273 271 270 272 279 285 283 278 275 277 279 280 277 271 265 258 254 253 251 249 248 248 250 256 262 267 269 266 263 263 267 270 272 274 271 270 271 272 272 273 274 274 276 278 279 280 281 281 282 286 282 275 275 277 275 270 266 263 261 259 255 249 248 251 251 248 244 240 236 231 226 226 229
245 240 236 237 237 233 229 235 243 247 250 259 268 276 283 273 268 276 272 268 267 266 272 275 272 270 272 280 285 284 280 275 275 279 284 287 280 267 254 247 243 240 241 245 248 251 254 258 263 266 263 259 260 262 264 265 265 265 266 266 266 267 270 273 276 278 280 281 282 282 282 280 279 287 289 279 273 270 268 263 261 261 260 257 255 249 246 248 249 247 244 242 239 234 229 227 229
242 238 234 237 238 235 235 238 244 253 260 269 271 269 276 268 261 267 268 264 264 266 270 269 270 276 284 288 286 280 276 277 278 277 277 278 274 260 242 234 232 232 237 243 248 251 255 258 263 263 259 257 259 260 260 260 261 263 267 269 268 270 272 275 278 281 283 284 286 284 282 282 282 285 288 282 273 264 258 256 254 256 260 262 256 247 245 247 245 243 241 241 240 238 235 233 233
242 237 232 232 237 238 240 244 250 256 261 265 254 242 249 256 255 257 261 262 265 268 267 266 271 278 283 285 290 292 287 284 279 272 264 262 261 249 236 228 225 228 237 244 247 249 250 255 262 260 255 255 257 257 258 259 262 265 269 272 273 275 276 278 280 282 284 285 287 284 282 287 289 284 283 280 272 261 254 250 252 257 263 267 262 250 244 244 241 238 236 237 238 238 238 237 237
245 241 237 233 235 239 243 247 253 258 257 250 239 231 232 240 248 254 257 258 263 267 268 268 271 274 278 285 295 299 298 294 282 269 256 246 244 238 230 221 220 229 237 242 244 242 243 253 261 259 257 260 262 264 264 263 264 267 269 272 275 276 278 280 282 284 286 287 289 285 281 289 291 284 284 280 269 257 251 251 259 264 268 271 266 252 245 246 243 239 235 234 237 240 241 239 238
248 246 245 242 240 241 244 246 250 256 259 252 243 239 235 236 246 254 255 256 260 265 268 266 266 272 276 282 291 296 303 305 292 279 264 244 233 228 220 218 225 234 237 238 237 236 244 256 261 262 264 268 271 271 271 271 272 273 272 273 276 278 281 283 285 286 286 288 290 286 281 285 289 287 284 274 261 254 251 256 263 264 288 319 299 271 260 260 256 249 241 238 240 243 245 243 242
250 251 251 249 247 247 248 248 249 255 262 257 247 243 240 239 248 255 255 257 260 262 265 267 270 273 275 280 287 291 301 303 296 290 270 240 225 221 221 226 231 235 235 233 232 237 249 258 264 267 268 273 278 279 280 281 280 278 275 274 277 281 284 285 285 286 285 287 288 288 286 283 282 282 276 264 260 260 254 259 278 311 339 351 343 309 286 277 266 257 251 248 247 246 247 250 251
251 252 253 251 249 249 249 247 247 250 253 250 242 242 246 247 250 254 255 255 257 260 265 270 270 269 272 278 281 280 291 295 287 286 253 224 224 227 226 230 230 230 235 235 238 245 251 257 266 271 274 281 287 289 288 287 283 278 274 273 275 280 283 284 283 283 283 284 285 285 287 287 280 270 264 262 260 257 256 267 299 320 333 342 339 328 314 304 281 262 254 251 250 249 252 259 262
251 252 254 255 252 245 241 239 237 238 241 241 239 242 245 244 246 249 250 252 256 260 265 270 270 269 271 274 277 276 284 288 275 260 219 217 236 239 225 224 226 232 241 243 244 247 250 260 269 273 279 288 291 290 291 292 290 282 274 273 276 280 283 284 283 282 283 283 283 281 280 287 286 274 268 261 254 252 256 269 290 309 329 334 325 327 326 318 303 280 261 254 252 251 253 256 259
247 249 250 252 246 236 233 232 230 232 237 238 239 241 238 235 245 250 248 250 256 261 270 278 276 273 273 276 283 280 274 268 248 217 211 228 245 240 220 214 222 234 244 245 245 246 254 266 269 274 284 290 288 288 294 298 297 288 280 279 279 282 284 286 286 285 286 285 287 286 281 283 279 270 275 267 263 260 248 255 269 287 309 317 321 329 331 324 314 301 283 268 260 255 252 250 252
240 242 240 238 233 229 231 231 229 230 235 237 236 235 230 230 244 252 251 249 253 262 276 284 280 277 279 284 286 275 254 230 219 231 249 243 239 235 218 216 229 242 248 247 247 253 266 272 273 281 290 295 293 292 298 299 296 289 282 280 277 278 279 281 285 285 287 287 290 291 286 284 274 265 272 271 269 260 239 243 252 267 288 306 320 327 329 326 318 313 303 280 264 258 255 253 254
233 233 227 220 221 221 213 210 218 227 233 232 225 227 224 223 235 247 249 246 248 261 277 282 285 289 290 287 275 258 244 230 232 245 252 243 238 232 219 225 239 248 252 252 257 270 278 280 284 293 299 301 299 300 306 303 297 291 283 279 274 272 272 274 280 285 288 288 290 290 288 286 279 272 271 265 261 252 245 244 247 260 278 295 309 314 318 315 311 312 309 285 266 262 260 261 261
227 221 216 215 216 212 195 191 204 218 236 230 210 223 221 216 229 240 242 240 246 259 273 281 288 292 288 285 279 272 262 252 250 248 246 244 246 243 240 249 251 249 253 256 266 279 282 285 292 300 303 301 302 307 310 305 298 293 285 279 274 271 271 271 275 280 286 290 290 290 288 282 273 266 260 256 249 245 247 250 252 260 271 287 297 298 299 296 297 302 303 296 282 274 268 266 263
227 215 208 210 210 204 190 192 204 210 237 247 207 215 214 214 225 229 227 234 249 262 275 282 285 285 284 288 290 286 279 270 265 261 261 262 258 259 265 271 261 251 257 261 266 276 279 286 291 294 297 296 302 306 303 298 293 292 289 285 281 276 275 276 277 278 282 289 292 291 285 268 254 249 247 249 245 241 245 251 255 259 266 278 288 290 288 285 285 286 289 292 287 278 271 269 263
224 210 202 200 194 192 192 200 210 211 229 253 242 201 204 211 219 219 222 233 253 270 277 280 278 280 286 294 293 286 283 281 277 273 270 268 263 261 261 254 249 255 268 271 271 275 275 281 285 284 286 288 295 296 293 291 289 290 291 290 288 284 283 283 283 283 283 287 290 291 289 273 256 255 260 262 258 251 247 248 253 257 263 270 277 280 278 278 278 277 279 282 281 276 270 268 262
214 202 195 190 183 188 205 213 219 223 232 243 270 196 202 212 220 222 233 238 250 267 271 274 274 279 288 294 292 284 282 281 279 270 262 261 254 248 245 245 258 269 275 274 272 274 274 277 279 275 275 281 286 287 285 284 284 287 288 289 294 295 294 292 289 287 286 287 289 290 290 284 276 274 276 276 272 264 256 254 257 259 262 265 268 270 269 269 271 273 274 274 275 275 272 269 262
211 196 184 180 182 191 215 221 217 231 239 232 231 197 207 227 232 228 238 243 251 263 268 273 275 281 288 287 287 286 285 283 277 266 260 262 255 247 254 262 267 268 269 272 272 272 274 274 272 271 275 279 279 282 284 280 277 281 285 290 293 294 295 293 291 288 285 285 286 287 286 283 281 277 275 273 270 266 261 258 258 258 260 261 261 262 262 261 262 266 268 268 271 272 271 271 266
210 192 175 175 186 194 216 214 183 198 199 214 237 222 219 244 247 237 240 247 253 258 263 273 277 282 286 283 283 287 289 286 278 267 260 260 258 256 258 258 256 256 262 271 271 270 271 270 270 275 280 279 275 278 286 280 274 277 283 286 286 286 289 289 285 283 281 280 280 281 280 278 277 275 273 269 264 261 258 255 253 253 255 257 258 258 258 257 256 258 260 262 264 267 269 270 267
210 190 173 175 188 191 208 198 171 194 197 205 235 243 240 250 248 235 237 244 247 251 258 268 274 277 282 285 286 288 292 292 283 273 262 257 258 257 256 252 249 251 258 265 268 269 272 274 275 277 278 278 273 276 292 285 274 275 279 279 282 286 290 291 285 279 275 275 275 275 274 273 271 270 269 266 262 259 257 255 254 254 255 256 257 256 256 255 253 252 254 257 257 259 263 263 260
210 196 179 180 189 187 190 185 177 195 203 206 224 242 246 247 239 229 234 239 240 247 253 259 268 272 277 281 285 289 292 293 284 271 265 264 263 259 256 255 253 252 255 259 263 267 271 273 275 276 274 276 272 274 296 292 277 276 281 282 284 287 290 293 290 282 275 270 267 268 269 268 267 265 263 261 260 258 258 258 258 257 257 258 258 258 258 258 256 255 255 257 256 255 257 258 256
208 201 186 182 190 192 190 192 193 198 205 213 222 233 238 237 232 226 232 238 240 244 248 255 264 269 271 274 279 284 285 286 285 278 277 280 277 271 265 263 267 268 264 262 262 265 270 271 272 273 274 273 267 267 280 289 283 277 282 296 298 294 293 292 289 281 276 272 266 262 263 263 262 261 260 259 258 259 260 261 262 262 263 264 265 264 265 264 263 261 261 260 260 257 257 258 258
207 201 190 185 192 198 199 204 207 207 212 221 225 230 233 231 224 218 225 235 240 242 244 250 258 263 267 272 276 278 277 280 285 283 282 285 288 292 288 279 279 277 269 265 263 263 267 271 273 275 277 274 268 269 270 275 285 280 283 305 309 303 298 292 289 284 280 280 274 266 261 261 261 260 260 260 260 261 262 265 266 268 269 270 271 271 269 269 266 264 262 262 262 260 259 259 259
208 202 193 190 195 201 207 214 217 217 220 226 230 235 236 229 218 213 219 228 235 239 241 243 249 255 260 266 270 273 277 283 286 284 285 292 302 311 308 292 279 270 267 268 267 265 266 271 277 277 278 275 274 278 275 269 272 274 286 307 310 307 304 300 299 298 296 295 286 274 265 261 261 260 260 260 259 261 261 263 265 266 269 270 271 271 270 267 265 262 260 259 260 260 258 257 257
207 203 196 194 200 204 210 219 223 226 229 232 238 244 245 235 223 219 222 224 229 236 242 244 247 250 253 258 264 271 278 282 285 288 290 298 310 307 298 293 291 282 278 277 273 270 268 271 276 274 272 270 274 284 285 273 260 259 279 300 305 305 307 310 311 308 305 302 293 280 268 262 263 260 259 259 259 260 260 260 262 263 265 266 267 267 267 265 263 262 260 257 256 255 254 254 254
208 205 199 198 203 206 211 220 227 232 236 240 245 249 250 243 229 222 226 227 226 231 238 243 246 249 251 256 262 268 272 278 286 290 291 294 292 290 286 283 288 284 277 275 273 270 269 272 274 272 270 271 277 287 291 285 271 268 281 292 296 302 308 310 310 307 305 300 292 282 271 263 264 262 260 261 261 262 263 262 262 263 264 265 267 268 268 267 265 263 261 259 257 254 252 251 252
209 207 204 203 207 209 214 222 229 234 239 243 248 252 252 247 235 225 226 228 227 228 232 236 242 248 253 256 259 262 266 274 283 286 288 289 283 283 284 277 275 272 265 264 264 264 266 269 270 271 272 273 280 287 290 290 285 282 286 286 287 297 303 304 302 299 297 293 286 281 272 263 262 263 262 264 268 269 270 270 269 269 269 269 270 270 270 270 268 265 263 261 259 257 253 251 251
217 213 211 209 213 215 219 225 230 233 237 242 248 252 254 254 249 238 228 227 227 228 229 231 237 245 251 256 257 259 265 272 280 284 286 288 286 285 284 277 273 272 269 267 266 265 265 265 264 267 270 272 278 285 288 287 284 284 286 284 286 294 295 296 295 289 286 287 285 282 276 266 261 264 266 269 276 279 280 281 279 277 277 275 274 273 272 270 267 265 263 261 259 258 256 254 253
225 222 219 216 219 222 225 228 231 232 235 240 244 248 252 254 254 248 237 231 228 229 232 232 236 242 248 255 258 260 263 269 278 282 283 286 289 288 286 281 277 276 276 275 273 271 268 266 263 262 265 270 276 278 279 279 280 282 284 284 285 286 289 292 288 281 279 281 283 281 277 270 263 265 273 279 286 289 289 288 287 285 283 281 279 275 271 268 265 263 262 260 258 256 256 256 256
231 230 228 226 226 229 233 236 236 234 234 237 240 243 247 251 254 255 249 240 233 232 235 234 237 242 247 253 258 260 263 269 276 279 283 289 291 288 285 283 282 283 283 283 281 277 272 270 269 269 269 273 275 273 272 274 275 277 283 286 280 273 283 292 286 278 275 274 275 275 272 268 265 269 280 289 294 297 296 292 288 285 283 281 278 274 271 266 265 265 265 265 263 261 259 258 257
233 231 229 231 233 235 241 244 241 237 235 236 239 241 245 249 254 256 251 243 238 234 235 236 237 241 246 252 257 264 270 274 277 280 286 291 291 286 284 285 289 291 290 288 287 282 278 275 274 275 276 278 278 272 266 263 263 269 281 285 273 266 283 294 290 282 275 271 271 270 269 265 262 268 284 295 299 299 295 290 284 277 274 273 272 271 271 268 267 268 269 270 270 268 266 263 261
230 229 229 232 233 236 243 245 241 238 237 238 241 244 248 251 253 255 250 242 237 235 235 238 238 240 245 251 259 268 275 276 277 282 286 286 284 282 282 287 291 290 288 286 284 282 281 278 276 275 275 277 277 272 263 256 256 262 277 286 276 273 285 290 289 284 275 273 271 267 268 265 258 258 269 283 292 298 298 292 284 274 267 266 264 264 266 269 271 272 272 272 272 271 270 269 267
222 226 227 228 231 234 240 243 242 242 243 246 247 247 249 250 248 252 249 236 231 233 236 239 241 243 246 252 259 265 271 273 275 279 278 275 273 276 281 286 286 282 281 281 281 283 283 281 278 274 271 273 274 271 266 261 258 255 264 286 284 276 276 273 272 274 270 270 271 267 265 264 263 261 262 271 282 294 302 299 291 285 280 278 274 269 266 264 265 266 268 271 272 273 273 273 274
215 222 225 225 228 234 237 239 244 247 249 253 253 246 242 243 243 246 245 234 229 231 234 238 243 244 244 248 254 259 262 264 266 268 268 267 268 273 276 279 280 279 278 279 282 287 288 286 283 277 275 277 276 275 272 264 249 240 251 282 285 272 267 257 251 259 265 266 267 267 265 264 267 268 267 272 284 294 300 297 291 289 289 289 286 283 280 275 271 267 266 267 270 273 275 276 276
213 216 225 225 224 234 244 248 251 254 255 254 248 239 234 235 238 240 239 237 235 234 237 241 242 242 242 244 248 249 249 250 254 257 256 258 264 267 266 267 273 278 280 282 284 287 290 291 288 281 278 277 274 277 280 264 241 238 261 287 283 271 268 258 248 253 263 265 263 264 266 267 269 273 276 277 283 292 294 287 281 280 283 286 286 287 288 286 284 281 276 271 268 269 271 274 275
215 213 221 225 223 228 240 248 251 253 254 247 232 227 231 231 233 234 235 239 240 237 239 243 243 244 245 245 245 245 244 245 249 251 247 248 256 260 262 266 270 275 280 283 284 285 288 289 286 280 278 279 277 278 280 272 261 265 281 289 279 269 270 267 261 261 265 263 257 257 264 268 270 274 279 279 278 282 282 278 274 273 274 275 277 281 285 288 290 291 288 283 277 273 270 269 268
216 216 220 227 228 228 231 239 246 248 249 247 235 227 233 236 235 236 235 238 242 240 238 240 241 243 246 247 248 250 246 241 243 250 251 253 257 259 263 266 269 274 280 282 283 284 284 284 283 282 284 287 286 284 283 282 281 283 287 287 278 272 276 279 273 268 264 260 255 255 258 263 269 274 277 277 276 276 275 273 272 273 274 271 271 275 278 281 285 288 289 286 284 284 281 276 270
222 221 222 227 229 231 233 236 242 244 245 249 247 239 238 239 238 240 240 240 242 242 240 240 240 244 250 252 252 252 245 239 244 254 260 264 266 264 266 270 274 279 282 282 283 283 283 282 283 286 291 292 291 289 288 289 289 288 286 285 278 273 276 281 278 271 264 257 255 257 257 257 263 270 275 277 278 278 277 274 272 271 274 276 280 283 283 282 281 281 281 280 280 282 282 280 276